Location: Broekland
(52.3610°N, 6.2005°E)
Time: 17:16:58
(UTC+00:00)

Cosmos 1805 Rocket - Pass Details

Date: 19 May 2025
Orbit: 600 x 623 km, 82.5° (Epoch: 16 June)

Event Time Altitude Azimuth Distance (km) Brightness Sun altitude
Rises 23:01:10 0° 348° (NNW) 2,920 8.8 -17.3°
Reaches altitude 10° 23:03:25 10° 347° (NNW) 2,007 7.5 -17.4°
Maximum altitude 23:07:52 77° 263° (W) 645 3.6 -17.5°
Enters shadow 23:09:38 36° 182° (S) 995 4.1 -17.5°
